Lyndonville, VT

2:54 PM EDT on May 28, 2017 (GMT -0400)
Lyndonville

Weather History for KCDA - October, 2012

Change the Weather History Date:

Wednesday, October 31, 2012

  Actual Average (K1V4) Record (K1V4)
Temperature  
Mean Temperature 52 °F -  
Max Temperature 58 °F 46 °F 71 °F (1957)
Min Temperature 45 °F 30 °F 13 °F (1966)
Degree Days  
Heating Degree Days 14    
Growing Degree Days 2 (Base 50)    
Moisture  
Dew Point 46 °F    
Average Humidity 79    
Maximum Humidity 92    
Minimum Humidity 68    
Precipitation  
Precipitation 0.00 in - - ()
Sea Level Pressure  
Sea Level Pressure 29.49 in    
Wind  
Wind Speed 4 mph (South)    
Max Wind Speed 13 mph    
Max Gust Speed 21 mph    
Visibility 9 miles    
Events Fog , Rain    
Averages and records for this station are not official NWS values.
T = Trace of Precipitation, MM = Missing Value Source: NWS Daily Summary

Daily Weather History Graph

Daily Weather History Graph

Search for Another Location

Airport or City:

Trip Planner

Search our weather history database for the weather conditions in past years. The results will help you decide how hot, cold, wet, or windy it might be!

Date:

Astronomy

Oct. 31, 2012 Rise Set
Actual Time 7:24 AM EDT 5:37 PM EDT
Civil Twilight 6:54 AM EDT 6:08 PM EDT
Nautical Twilight 6:20 AM EDT 6:42 PM EDT
Astronomical Twilight 5:46 AM EDT 7:16 PM EDT
Moon 6:42 PM EDT (10/31) 9:07 AM EDT (10/31)
Length of Visible Light 11h 13m
Length of Day
10h 12m
Full, 97% of the Moon is Illuminated
Oct 31
Full
Nov 6
Last Quarter
Nov 13
New
Nov 20
First Quarter
Nov 28
Full

Hourly Weather History & Observations

Time (EDT) Temp. Windchill Dew Point Humidity Pressure Visibility Wind Dir Wind Speed Gust Speed Precip Events Conditions
12:15 AM 55.2 °F - 50.2 °F 83% 29.56 in 10.0 mi SSE 5.8 mph - N/A   Clear
12:35 AM 55.4 °F - 50.4 °F 83% 29.56 in 10.0 mi South 4.6 mph - N/A   Mostly Cloudy
12:55 AM 55.6 °F - 50.4 °F 83% 29.55 in 10.0 mi SSE 4.6 mph - N/A   Light Drizzle
1:15 AM 56.3 °F - 49.8 °F 79% 29.54 in 10.0 mi Calm Calm - N/A   Overcast
1:35 AM 54.5 °F - 51.1 °F 88% 29.54 in 10.0 mi Calm Calm - N/A   Overcast
1:55 AM 55.4 °F - 50.2 °F 83% 29.54 in 10.0 mi Calm Calm - N/A   Overcast
2:15 AM 55.0 °F - 50.2 °F 84% 29.54 in 10.0 mi Calm Calm - N/A   Overcast
2:35 AM 54.5 °F - 50.2 °F 85% 29.54 in 10.0 mi Calm Calm - N/A   Mostly Cloudy
2:55 AM 53.1 °F - 49.3 °F 87% 29.54 in 10.0 mi Calm Calm - N/A   Scattered Clouds
3:15 AM 54.5 °F - 49.3 °F 83% 29.53 in 10.0 mi Calm Calm - N/A   Clear
3:35 AM 52.5 °F - 49.1 °F 88% 29.53 in 10.0 mi Calm Calm - N/A   Scattered Clouds
3:55 AM 53.6 °F - 49.3 °F 85% 29.53 in 10.0 mi Calm Calm - N/A   Scattered Clouds
4:15 AM 51.1 °F - 48.2 °F 90% 29.52 in 4.0 mi Calm Calm - N/A   Scattered Clouds
4:35 AM 52.7 °F - 49.3 °F 88% 29.51 in 10.0 mi NNW 3.5 mph - N/A   Clear
4:55 AM 51.6 °F - 48.6 °F 89% 29.52 in 10.0 mi Calm Calm - N/A   Clear
5:15 AM 48.4 °F - 45.5 °F 90% 29.51 in 0.2 mi Calm Calm - N/A Fog Fog
5:35 AM 49.3 °F - 46.6 °F 90% 29.51 in 10.0 mi Calm Calm - N/A   Scattered Clouds
5:55 AM 48.6 °F - 45.7 °F 90% 29.50 in 0.8 mi West 5.8 mph - N/A   Mist
6:15 AM 48.9 °F - 46.2 °F 90% 29.49 in 3.0 mi Calm Calm - N/A   Scattered Clouds
6:35 AM 50.0 °F - 47.3 °F 90% 29.49 in 10.0 mi Calm Calm - N/A   Mostly Cloudy
6:55 AM 50.5 °F - 47.8 °F 90% 29.48 in 10.0 mi NNW 3.5 mph - N/A   Mostly Cloudy
7:15 AM 47.8 °F - 45.1 °F 90% 29.48 in 0.8 mi ENE 3.5 mph - N/A   Overcast
7:35 AM 48.7 °F - 46.4 °F 92% 29.48 in 10.0 mi Calm Calm - N/A   Mostly Cloudy
7:55 AM 49.1 °F - 46.6 °F 91% 29.47 in 10.0 mi East 6.9 mph - N/A   Mostly Cloudy
8:15 AM 52.5 °F - 49.3 °F 89% 29.47 in 10.0 mi ESE 9.2 mph - N/A   Scattered Clouds
8:35 AM 56.5 °F - 48.2 °F 74% 29.46 in 10.0 mi ESE 6.9 mph - N/A   Scattered Clouds
8:55 AM 56.8 °F - 48.2 °F 73% 29.46 in 10.0 mi ESE 9.2 mph - N/A   Scattered Clouds
9:15 AM 57.2 °F - 48.7 °F 73% 29.47 in 10.0 mi Calm Calm - N/A   Overcast
9:35 AM 56.3 °F - 49.3 °F 77% 29.47 in 10.0 mi South 3.5 mph - N/A   Overcast
9:55 AM 56.3 °F - 49.5 °F 78% 29.47 in 10.0 mi South 4.6 mph - N/A   Overcast
10:15 AM 56.3 °F - 49.6 °F 78% 29.47 in 10.0 mi South 4.6 mph - N/A   Overcast
10:35 AM 57.9 °F - 50.0 °F 75% 29.47 in 10.0 mi SSE 6.9 mph - N/A   Mostly Cloudy
10:55 AM 57.6 °F - 49.6 °F 75% 29.47 in 10.0 mi SSE 5.8 mph - N/A   Overcast
11:15 AM 58.1 °F - 50.0 °F 74% 29.46 in 10.0 mi SSE 5.8 mph - N/A   Overcast
11:35 AM 57.6 °F - 51.4 °F 80% 29.46 in 7.0 mi South 6.9 mph - N/A   Overcast
11:55 AM 57.6 °F - 50.9 °F 78% 29.46 in 10.0 mi South 12.7 mph 16.1 mph N/A Rain Light Rain
12:15 PM 55.8 °F - 50.7 °F 83% 29.47 in 10.0 mi South 12.7 mph 20.7 mph N/A Rain Light Rain
12:35 PM 54.0 °F - 49.3 °F 84% 29.48 in 10.0 mi South 9.2 mph - N/A   Overcast
12:55 PM 53.8 °F - 47.8 °F 80% 29.47 in 10.0 mi South 8.1 mph - N/A   Overcast
1:15 PM 56.1 °F - 48.2 °F 75% 29.47 in 10.0 mi South 5.8 mph - N/A   Overcast
1:35 PM 54.7 °F - 47.7 °F 77% 29.46 in 10.0 mi South 4.6 mph - N/A   Overcast
1:55 PM 54.5 °F - 47.5 °F 77% 29.46 in 10.0 mi SSW 5.8 mph - N/A   Overcast
2:15 PM 54.9 °F - 47.1 °F 75% 29.46 in 10.0 mi South 9.2 mph - N/A   Overcast
2:35 PM 54.5 °F - 47.3 °F 77% 29.46 in 10.0 mi SSW 9.2 mph - N/A   Overcast
2:55 PM 52.7 °F - 45.7 °F 77% 29.47 in 10.0 mi South 9.2 mph 18.4 mph N/A   Overcast
3:15 PM 51.8 °F - 45.5 °F 79% 29.48 in 10.0 mi SSW 5.8 mph 9.2 mph N/A   Overcast
3:35 PM 50.4 °F - 43.9 °F 78% 29.48 in 10.0 mi South 8.1 mph - N/A Rain Rain
3:55 PM 49.5 °F - 43.7 °F 81% 29.48 in 10.0 mi South 4.6 mph - N/A   Light Drizzle
4:15 PM 49.5 °F - 42.6 °F 77% 29.48 in 10.0 mi South 8.1 mph - N/A Rain Light Rain
4:35 PM 49.3 °F - 41.2 °F 74% 29.48 in 10.0 mi South 5.8 mph - N/A   Overcast
4:55 PM 50.2 °F - 41.5 °F 72% 29.48 in 10.0 mi South 6.9 mph - N/A   Overcast
5:15 PM 49.5 °F - 41.9 °F 75% 29.48 in 10.0 mi South 9.2 mph - N/A   Overcast
5:35 PM 49.3 °F - 40.6 °F 72% 29.48 in 10.0 mi SSW 9.2 mph 17.3 mph N/A   Overcast
5:55 PM 49.1 °F - 40.6 °F 73% 29.49 in 10.0 mi SSW 3.5 mph - N/A   Overcast
6:35 PM 48.6 °F - 41.5 °F 77% 29.50 in 10.0 mi South 4.6 mph - N/A   Overcast
6:55 PM 48.6 °F - 41.9 °F 78% 29.50 in 10.0 mi South 5.8 mph - N/A   Overcast
7:35 PM 48.4 °F - 41.2 °F 76% 29.50 in 10.0 mi South 5.8 mph - N/A   Overcast
7:55 PM 48.2 °F - 40.3 °F 74% 29.50 in 10.0 mi South 5.8 mph - N/A   Overcast
8:15 PM 47.7 °F - 39.7 °F 74% 29.50 in 10.0 mi South 4.6 mph - N/A   Overcast
8:35 PM 47.5 °F - 38.7 °F 71% 29.50 in 10.0 mi South 6.9 mph - N/A   Overcast
8:55 PM 47.5 °F - 38.3 °F 70% 29.50 in 10.0 mi South 4.6 mph - N/A   Overcast
9:15 PM 47.5 °F - 37.6 °F 69% 29.51 in 10.0 mi South 6.9 mph - N/A   Overcast
9:35 PM 47.3 °F - 37.4 °F 68% 29.51 in 10.0 mi Calm Calm - N/A   Overcast
9:55 PM 46.6 °F - 37.2 °F 70% 29.51 in 10.0 mi South 5.8 mph - N/A   Overcast
10:15 PM 46.6 °F - 36.9 °F 69% 29.51 in 10.0 mi South 6.9 mph - N/A   Overcast
10:35 PM 46.0 °F 41.9 °F 37.0 °F 71% 29.51 in 10.0 mi South 8.1 mph - N/A   Mostly Cloudy
10:55 PM 45.7 °F 44.4 °F 37.2 °F 72% 29.50 in 10.0 mi South 3.5 mph - N/A   Scattered Clouds
11:15 PM 45.3 °F 41.6 °F 36.9 °F 72% 29.51 in 10.0 mi South 6.9 mph - N/A   Mostly Cloudy
11:35 PM 45.0 °F 41.2 °F 36.7 °F 73% 29.50 in 10.0 mi South 6.9 mph - N/A   Overcast
11:55 PM 45.0 °F 40.6 °F 37.0 °F 74% 29.50 in 10.0 mi South 8.1 mph - N/A   Overcast